Find Starlink 32391

NORAD ID: 61855 Int'l Des: 2024-202 Owner: SPXS Country: US Constellation: starlink operational
LEOCIRCULAR

Aktuelle Ansicht

3D-Globus wird geladen...

Über Starlink 32391

Beschreibung wird geladen...

Nächste Überflüge

Passes for default location (London). Set your location on the main map for personalized predictions.

Höhenverlauf

Loading altitude history...

Zweizeiliger Elementsatz

1 61855U 24202L 26149.01034225 .00001760 00000-0 73468-4 0 9990
2 61855 42.9994 144.2078 0001181 270.9894 89.0822 15.27581023 87615
Epoch: 29. Mai 2026 • Age: 37 hours

Aktueller Status

Höhe 489.5 km
Geschwindigkeit 7.62 km/s
Subsatellitenpunkt -27.75°S, 7.31°E
Startdatum 7. Nov. 2024
Alter 1.5 years
Typ internet

Technische Details

Klassifizierung Payload
Masse 730.00 kg
Trockenmasse 700.00 kg
Gesamtmasse 730.00 kg
Länge 0.30 m
Durchmesser 4.10 m
Spannweite 29.00 m
Form Box + pan
Hersteller SPXS
Bus-Typ Starlink V2M
Phasenstatus In Orbit
Besitzer/Staat SPXS/US

Most Searched